Torna al catalogo

PEGASUS DEB

AttivoPO
NORAD 24007·DEBRIS·🇺🇸 United States

Lanciato May 19, 1994 da Vandenberg Space Force Base

Loading…

Prossimi Passaggi (prossime 24 ore)

TLE

AggiornatoSource: Space-Track

Epoca: Sep 14, 2026, 05:57 UTC

1 24007U 94029BC  26257.24829023  .00001855  00000-0  12833-3 0  9998
2 24007  81.9223 173.6303 0059942 294.2238 225.3902 15.03691990638274

Traccia PEGASUS DEB in tempo reale con AllMySat

Download on the App Store